This is the latest recevied weather packets stored in our database for station/object N7WSS. If no packets are shown the sender has not sent any weather packets the latest 10 day(s).
| Time | Temp. | Humidity | Pressure | Rain* | Wind** | Luminosity | Snow |
|---|---|---|---|---|---|---|---|
| 1777833276 | 27.22° C | 32% | 1012 hPa | 0 mm | - | - | - |
| 1777832973 | 27.22° C | 32% | 1012.4 hPa | 0 mm | - | - | - |
| 1777832672 | 27.22° C | 33% | 1012.3 hPa | 0 mm | - | - | - |
| 1777832369 | 26.67° C | 33% | 1012.5 hPa | 0 mm | - | - | - |
| 1777832066 | 26.67° C | 33% | 1012.5 hPa | 0 mm | - | - | - |
| 1777831761 | 26.67° C | 33% | 1012.7 hPa | 0 mm | - | - | - |
| 1777831460 | 27.22° C | 32% | 1012.6 hPa | 0 mm | - | - | - |
| 1777831156 | 27.22° C | 33% | 1012.8 hPa | 0 mm | - | - | - |
| 1777830855 | 26.67° C | 33% | 1012.7 hPa | 0 mm | - | - | - |
| 1777830550 | 26.67° C | 33% | 1012.8 hPa | 0 mm | - | - | - |
| 1777830249 | 26.11° C | 34% | 1012.7 hPa | 0 mm | - | - | - |
| 1777829949 | 26.11° C | 34% | 1012.8 hPa | 0 mm | - | - | - |
| 1777829645 | 25.56° C | 34% | 1012.9 hPa | 0 mm | - | - | - |
| 1777829342 | 25.56° C | 34% | 1012.8 hPa | 0 mm | - | - | - |
| 1777829040 | 26.11° C | 34% | 1012.9 hPa | 0 mm | - | - | - |
| 1777828735 | 26.11° C | 34% | 1013.1 hPa | 0 mm | - | - | - |
| 1777828432 | 25.56° C | 34% | 1013.1 hPa | 0 mm | - | - | - |
| 1777828130 | 25.56° C | 34% | 1013.2 hPa | 0 mm | - | - | - |
| 1777827826 | 25° C | 35% | 1013.3 hPa | 0 mm | - | - | - |
| 1777827523 | 25° C | 35% | 1013.3 hPa | 0 mm | - | - | - |
| 1777827221 | 25° C | 35% | 1013.2 hPa | 0 mm | - | - | - |
| 1777826917 | 25° C | 35% | 1013.6 hPa | 0 mm | - | - | - |
| 1777826614 | 25° C | 35% | 1013.2 hPa | 0 mm | - | - | - |
| 1777826310 | 24.44° C | 35% | 1013.3 hPa | 0 mm | - | - | - |
| 1777826008 | 24.44° C | 35% | 1013.3 hPa | 0 mm | - | - | - |
* Rain latest hour (hover to see other rain measurements)
** Current wind speed in m/s (hover to see current wind gust speed)